GW0353 Weather Reports


Display with metric or nautical units.
time (UTC)temp
F
wind
direction
speed
MPH
gust
MPH
rain 1hr
in
rain 24hr
in
rain mn
in
humidity
%
barometer
mb
20260903183558 71 323 2.0 4.0 0.00 0.00 0.00 25 1019.6
20260903183108 72 63 1.0 4.0 0.00 0.00 0.00 27 1019.6
20260903182559 71 328 1.0 5.0 0.00 0.00 0.00 26 1019.8
20260903182059 69 288 0.0 6.0 0.00 0.00 0.00 28 1019.9
20260903181605 69 298 1.0 6.0 0.00 0.00 0.00 28 1019.8
20260903181103 69 67 1.0 6.0 0.00 0.00 0.00 27 1019.9
20260903180558 69 303 2.0 6.0 0.00 0.00 0.00 28 1019.9
20260903180110 69 312 1.0 4.0 0.00 0.00 0.00 27 1019.9
20260903175558 68 307 2.0 4.0 0.00 0.00 0.00 28 1020.0
20260903175058 69 321 1.0 5.0 0.00 0.00 0.00 28 1019.8
20260903174620 69 28 1.0 5.0 0.00 0.00 0.00 27 1019.9
20260903174057 68 332 1.0 4.0 0.00 0.00 0.00 28 1019.9
20260903173557 68 27 0.0 4.0 0.00 0.00 0.00 29 1019.9
20260903173110 68 317 0.0 3.0 0.00 0.00 0.00 29 1019.9
20260903172558 67 72 0.0 4.0 0.00 0.00 0.00 29 1020.0
20260903172058 66 280 1.0 4.0 0.00 0.00 0.00 29 1020.0
20260903171605 66 349 1.0 4.0 0.00 0.00 0.00 29 1020.0
20260903171057 66 66 0.0 2.0 0.00 0.00 0.00 28 1020.1
20260903170600 65 272 0.0 4.0 0.00 0.00 0.00 29 1020.1
20260903170109 64 0 0.0 4.0 0.00 0.00 0.00 29 1020.2
20260903165557 64 32 0.0 6.0 0.00 0.00 0.00 30 1020.2
20260903165057 63 0 1.0 6.0 0.00 0.00 0.00 31 1020.2
20260903164608 62 349 1.0 4.0 0.00 0.00 0.00 31 1020.2
20260903164057 62 37 0.0 4.0 0.00 0.00 0.00 31 1020.2
20260903163556 61 42 2.0 4.0 0.00 0.00 0.00 31 1020.3
20260903163105 61 103 0.0 4.0 0.00 0.00 0.00 32 1020.3
20260903162559 60 74 1.0 4.0 0.00 0.00 0.00 31 1020.4
20260903162057 60 86 0.0 4.0 0.00 0.00 0.00 32 1020.4
20260903161607 60 58 1.0 4.0 0.00 0.00 0.00 33 1020.6
20260903161059 60 42 0.0 3.0 0.00 0.00 0.00 34 1020.5
20260903160557 58 0 0.0 3.0 0.00 0.00 0.00 34 1020.7
20260903160111 58 117 0.0 3.0 0.00 0.00 0.00 37 1020.9
20260903155558 58 54 0.0 3.0 0.00 0.00 0.00 38 1020.8
20260903155057 58 0 1.0 3.0 0.00 0.00 0.00 39 1021.0
20260903154607 58 53 0.0 2.0 0.00 0.00 0.00 45 1021.2
20260903154058 56 47 1.0 2.0 0.00 0.00 0.00 41 1021.1
20260903153557 56 51 0.0 2.0 0.00 0.00 0.00 46 1021.3
20260903153111 55 41 0.0 2.0 0.00 0.00 0.00 53 1021.2
20260903152600 54 0 0.0 1.0 0.00 0.00 0.00 55 1021.1
20260903152101 53 0 0.0 1.0 0.00 0.00 0.00 58 1021.1
20260903151606 53 0 0.0 1.0 0.00 0.00 0.00 60 1021.2
20260903151100 52 0 0.0 1.0 0.00 0.00 0.00 60 1021.1
20260903150557 52 0 0.0 0.0 0.00 0.00 0.00 58 1021.3
20260903150109 52 0 0.0 0.0 0.00 0.00 0.00 57 1021.3
20260903145557 52 0 0.0 0.0 0.00 0.00 0.00 54 1021.3
20260903145057 51 0 0.0 0.0 0.00 0.00 0.00 53 1021.4
20260903144610 49 0 0.0 0.0 0.00 0.00 0.00 55 1021.4
20260903144058 46 0 0.0 0.0 0.00 0.00 0.00 58 1021.3
20260903143558 44 0 0.0 0.0 0.00 0.00 0.00 59 1021.1
20260903143114 43 0 0.0 1.0 0.00 0.00 0.00 63 1021.0
20260903142559 41 0 0.0 1.0 0.00 0.00 0.00 65 1021.0
20260903142058 41 0 0.0 4.0 0.00 0.00 0.00 64 1020.9
20260903141614 40 0 0.0 4.0 0.00 0.00 0.00 67 1021.0
20260903141057 38 180 2.0 4.0 0.00 0.00 0.00 64 1020.9
20260903140558 38 0 0.0 2.0 0.00 0.00 0.00 68 1020.9
20260903140107 37 191 0.0 2.0 0.00 0.00 0.00 67 1020.8
20260903135557 37 0 0.0 2.0 0.00 0.00 0.00 69 1020.9
20260903135057 38 0 0.0 2.0 0.00 0.00 0.00 66 1020.8
20260903134620 38 0 0.0 1.0 0.00 0.00 0.00 66 1020.7
20260903134058 38 0 0.0 1.0 0.00 0.00 0.00 66 1020.6
20260903133558 38 0 0.0 1.0 0.00 0.00 0.00 66 1020.6
20260903133112 38 0 0.0 1.0 0.00 0.00 0.00 69 1020.5
20260903132600 38 0 0.0 1.0 0.00 0.00 0.00 65 1020.7
20260903132057 38 0 0.0 1.0 0.00 0.00 0.00 65 1020.7
20260903131605 38 0 0.0 0.0 0.00 0.00 0.00 66 1020.6
20260903131100 39 0 0.0 1.0 0.00 0.00 0.00 65 1020.6
20260903130558 39 0 0.0 1.0 0.00 0.00 0.00 64 1020.6
20260903130129 39 0 0.0 1.0 0.00 0.00 0.00 66 1020.7
20260903125557 38 0 0.0 2.0 0.00 0.00 0.00 66 1020.6
20260903125058 38 0 1.0 2.0 0.00 0.00 0.00 66 1020.6
20260903124612 39 0 0.0 0.0 0.00 0.00 0.00 65 1020.5
20260903124057 39 0 0.0 0.0 0.00 0.00 0.00 67 1020.4
20260903123557 39 0 0.0 1.0 0.00 0.00 0.00 66 1020.4
20260903123110 39 0 0.0 1.0 0.00 0.00 0.00 70 1020.5
20260903122557 39 0 0.0 1.0 0.00 0.00 0.00 68 1020.4
20260903122057 39 0 0.0 1.0 0.00 0.00 0.00 71 1020.4
20260903121602 39 0 0.0 1.0 0.00 0.00 0.00 66 1020.6
20260903121057 40 0 0.0 1.0 0.00 0.00 0.00 68 1020.6
20260903120557 40 0 0.0 1.0 0.00 0.00 0.00 68 1020.5
20260903120130 40 0 0.0 1.0 0.00 0.00 0.00 67 1020.6
20260903115600 40 0 0.0 2.0 0.00 0.00 0.00 66 1020.5
20260903115058 40 0 0.0 2.0 0.00 0.00 0.00 63 1020.4
20260903114606 40 161 0.0 1.0 0.00 0.00 0.00 65 1020.4
20260903114100 41 165 0.0 1.0 0.00 0.00 0.00 63 1020.5
20260903113557 41 0 0.0 1.0 0.00 0.00 0.00 62 1020.4
20260903113105 41 246 0.0 2.0 0.00 0.00 0.00 65 1020.6
20260903112558 40 0 0.0 2.0 0.00 0.00 0.00 63 1020.6
20260903112058 41 0 0.0 2.0 0.00 0.00 0.00 62 1020.6
20260903111606 40 0 0.0 1.0 0.00 0.00 0.00 62 1020.6
20260903111057 41 0 0.0 1.0 0.00 0.00 0.00 61 1020.7
20260903110600 42 0 0.0 1.0 0.00 0.00 0.00 60 1020.7
20260903110104 42 0 0.0 1.0 0.00 0.00 0.00 59 1020.6
20260903105600 42 0 0.0 2.0 0.00 0.00 0.00 59 1020.6
20260903105100 41 188 0.0 2.0 0.00 0.00 0.00 60 1020.7
20260903104606 41 0 1.0 2.0 0.00 0.00 0.00 60 1020.9
20260903104058 41 0 0.0 1.0 0.00 0.00 0.00 59 1020.8
20260903103557 41 0 0.0 1.0 0.00 0.00 0.00 59 1021.0
20260903103106 41 163 0.0 0.0 0.00 0.00 0.00 60 1021.0
20260903102558 42 0 0.0 1.0 0.00 0.00 0.00 59 1020.9
20260903102057 42 0 0.0 1.0 0.00 0.00 0.00 59 1020.8
20260903101608 41 173 0.0 4.0 0.00 0.00 0.00 60 1020.9
20260903101057 41 184 1.0 4.0 0.00 0.00 0.00 60 1021.0
20260903100558 42 151 0.0 1.0 0.00 0.00 0.00 59 1021.0
20260903100106 41 0 0.0 1.0 0.00 0.00 0.00 60 1020.9
20260903095557 41 0 0.0 2.0 0.00 0.00 0.00 61 1020.9
20260903095101 41 235 0.0 2.0 0.00 0.00 0.00 61 1021.0
20260903094610 42 0 1.0 2.0 0.00 0.00 0.00 60 1021.1
20260903094058 42 0 0.0 3.0 0.00 0.00 0.00 59 1021.0
20260903093557 42 0 0.0 3.0 0.00 0.00 0.00 58 1021.0
20260903093110 43 165 0.0 1.0 0.00 0.00 0.00 58 1021.0
20260903092557 43 0 0.0 2.0 0.00 0.00 0.00 58 1021.2
20260903092058 43 0 0.0 2.0 0.00 0.00 0.00 58 1021.3
20260903091603 43 0 1.0 2.0 0.00 0.00 0.00 58 1021.4
20260903091058 43 142 0.0 1.0 0.00 0.00 0.00 59 1021.4
20260903090558 43 0 0.0 2.0 0.00 0.00 0.00 59 1021.5
20260903090108 43 0 0.0 2.0 0.00 0.00 0.00 60 1021.6
20260903085559 43 243 0.0 1.0 0.00 0.00 0.00 60 1021.7
20260903085057 43 0 0.0 1.0 0.00 0.00 0.00 61 1021.8
20260903084604 43 233 0.0 2.0 0.00 0.00 0.00 62 1021.7
20260903084103 42 0 0.0 3.0 0.00 0.00 0.00 62 1021.8
20260903083558 42 156 1.0 3.0 0.00 0.00 0.00 63 1021.9
20260903083115 43 164 0.0 2.0 0.00 0.00 0.00 61 1021.7
20260903082558 42 195 0.0 3.0 0.00 0.00 0.00 62 1021.8
20260903082058 42 229 0.0 3.0 0.00 0.00 0.00 62 1021.8
20260903081625 43 189 0.0 2.0 0.00 0.00 0.00 60 1021.7
20260903081057 43 0 0.0 2.0 0.00 0.00 0.00 62 1021.7
20260903080603 43 0 1.0 2.0 0.00 0.00 0.00 62 1021.7
20260903080104 43 201 0.0 2.0 0.00 0.00 0.00 62 1021.7
20260903075557 43 0 1.0 2.0 0.00 0.00 0.00 61 1021.7
20260903075058 43 177 0.0 2.0 0.00 0.00 0.00 61 1021.8
20260903074614 44 170 0.0 2.0 0.00 0.00 0.00 61 1021.8
20260903074058 44 0 0.0 2.0 0.00 0.00 0.00 61 1021.7
20260903073558 44 174 0.0 2.0 0.00 0.00 0.00 61 1021.7
20260903073136 44 0 0.0 1.0 0.00 0.00 0.00 60 1021.7
20260903072557 44 0 0.0 1.0 0.00 0.00 0.00 62 1021.8
20260903072058 44 0 0.0 2.0 0.00 0.00 0.00 61 1021.7
20260903071621 44 0 0.0 2.0 0.00 0.00 0.00 60 1021.7
20260903071100 44 0 0.0 2.0 0.00 0.00 0.00 61 1021.8
20260903070557 45 0 0.0 2.0 0.00 0.00 0.00 62 1021.7
20260903070105 45 0 0.0 2.0 0.00 0.00 0.00 59 1021.8
20260903065557 45 0 0.0 1.0 0.00 0.00 0.00 61 1022.0
20260903065058 45 0 0.0 1.0 0.00 0.00 0.00 59 1022.0
20260903064608 45 0 0.0 1.0 0.00 0.00 0.00 59 1022.0
20260903064058 45 0 0.0 1.0 0.00 0.00 0.00 60 1022.0
20260903063558 45 0 0.0 1.0 0.00 0.00 0.00 59 1022.0
20260903063104 46 0 0.0 1.0 0.00 0.00 0.00 59 1022.0
20260903062557 46 0 0.0 1.0 0.00 0.00 0.00 59 1022.2
20260903062057 46 171 0.0 1.0 0.00 0.00 0.00 60 1022.2
20260903061604 46 0 0.0 1.0 0.00 0.00 0.00 60 1022.3
20260903061057 47 0 0.0 0.0 0.00 0.00 0.00 60 1022.4
20260903060557 47 0 0.0 2.0 0.00 0.00 0.00 59 1022.3
20260903060149 47 0 0.0 2.0 0.00 0.00 0.00 59 1022.5
20260903055558 47 173 0.0 2.0 0.00 0.00 0.00 59 1022.6
20260903055057 47 0 0.0 2.0 0.00 0.00 0.00 58 1022.5
20260903054605 48 0 0.0 1.0 0.00 0.00 0.00 58 1022.6
20260903054058 48 0 0.0 1.0 0.00 0.00 0.00 58 1022.6
20260903053600 48 0 0.0 1.0 0.00 0.00 0.00 59 1022.6
20260903053104 48 0 0.0 2.0 0.00 0.00 0.00 59 1022.5
20260903052557 48 0 0.0 2.0 0.00 0.00 0.00 60 1022.6
20260903052059 48 0 0.0 2.0 0.00 0.00 0.00 60 1022.6
20260903051609 48 0 0.0 2.0 0.00 0.00 0.00 60 1022.8
20260903051058 48 177 0.0 2.0 0.00 0.00 0.00 60 1022.9
20260903050601 49 0 0.0 2.0 0.00 0.00 0.00 60 1022.9
20260903050107 49 238 0.0 2.0 0.00 0.00 0.00 61 1023.0
20260903045558 49 0 1.0 3.0 0.00 0.00 0.00 61 1022.9
20260903045058 49 0 0.0 4.0 0.00 0.00 0.00 61 1023.0
20260903044605 49 348 0.0 4.0 0.00 0.00 0.00 60 1023.0
20260903044100 49 107 2.0 4.0 0.00 0.00 0.00 58 1022.9
20260903043600 49 138 0.0 0.0 0.00 0.00 0.00 56 1022.9
20260903043105 50 0 0.0 0.0 0.00 0.00 0.00 55 1022.8
20260903042558 50 0 0.0 2.0 0.00 0.00 0.00 55 1022.8
20260903042058 51 0 0.0 2.0 0.00 0.00 0.00 55 1022.9
20260903041608 51 282 0.0 2.0 0.00 0.00 0.00 55 1022.9
20260903041058 51 0 0.0 2.0 0.00 0.00 0.00 54 1022.9
20260903040600 52 325 0.0 3.0 0.00 0.00 0.00 54 1022.8
20260903040112 52 0 0.0 3.0 0.00 0.00 0.00 53 1022.8
20260903035558 51 308 0.0 3.0 0.00 0.00 0.00 53 1022.8
20260903035058 51 311 0.0 1.0 0.00 0.00 0.00 53 1022.7
20260903034603 52 0 0.0 2.0 0.00 0.00 0.00 52 1022.6
20260903034058 52 0 0.0 2.0 0.00 0.00 0.00 50 1022.5
20260903033558 53 0 0.0 3.0 0.00 0.00 0.00 49 1022.6
20260903033102 54 0 0.0 5.0 0.00 0.00 0.00 48 1022.4
20260903032558 55 0 0.0 5.0 0.00 0.00 0.00 47 1022.3
20260903032057 55 284 1.0 5.0 0.00 0.00 0.00 46 1022.4
20260903031605 55 319 0.0 5.0 0.00 0.00 0.00 48 1022.4
20260903031058 55 0 0.0 4.0 0.00 0.00 0.00 44 1022.2
20260903030600 55 0 0.0 4.0 0.00 0.00 0.00 44 1022.2
20260903030115 56 0 0.0 7.0 0.00 0.00 0.00 44 1021.9
20260903025558 56 297 1.0 7.0 0.00 0.00 0.00 42 1021.8
20260903025058 56 37 3.0 12.0 0.00 0.00 0.00 42 1021.7
20260903024610 56 344 5.0 12.0 0.00 0.00 0.00 43 1021.7
20260903024059 56 37 4.0 10.0 0.00 0.00 0.00 44 1021.6
20260903023558 56 7 1.0 5.0 0.00 0.00 0.00 44 1021.5
20260903023125 57 264 0.0 5.0 0.00 0.00 0.00 42 1021.6
20260903022558 58 169 0.0 3.0 0.00 0.00 0.00 41 1021.5
20260903022058 58 8 0.0 2.0 0.00 0.00 0.00 41 1021.4
20260903021612 60 45 0.0 2.0 0.00 0.00 0.00 38 1021.4
20260903021059 61 314 0.0 5.0 0.00 0.00 0.00 36 1021.4
20260903020558 61 0 0.0 5.0 0.00 0.00 0.00 35 1021.3
20260903020112 61 233 1.0 6.0 0.00 0.00 0.00 34 1021.3
20260903015600 62 259 1.0 6.0 0.00 0.00 0.00 35 1021.3
20260903015059 62 229 1.0 8.0 0.00 0.00 0.00 35 1021.3
20260903014610 62 260 2.0 8.0 0.00 0.00 0.00 35 1021.4
20260903014058 63 164 3.0 8.0 0.00 0.00 0.00 33 1021.3
20260903013632 63 172 3.0 12.0 0.00 0.00 0.00 34 1021.5
20260903013109 63 201 6.0 12.0 0.00 0.00 0.00 32 1021.4
20260903012558 64 168 2.0 7.0 0.00 0.00 0.00 32 1021.4
20260903012058 64 231 3.0 7.0 0.00 0.00 0.00 32 1021.3
20260903011606 65 167 2.0 7.0 0.00 0.00 0.00 32 1021.4
20260903011101 66 153 1.0 8.0 0.00 0.00 0.00 32 1021.4
20260903010558 66 161 2.0 8.0 0.00 0.00 0.00 30 1021.5
20260903005558 66 157 3.0 10.0 0.00 0.00 0.00 31 1021.5
20260903005058 66 138 2.0 15.0 0.00 0.00 0.00 30 1021.4
20260903004604 66 188 2.0 15.0 0.00 0.00 0.00 30 1021.3
20260903004057 66 243 4.0 11.0 0.00 0.00 0.00 30 1021.3
20260903003557 66 172 5.0 11.0 0.00 0.00 0.00 30 1021.4
20260903003109 67 163 4.0 11.0 0.00 0.00 0.00 29 1021.5
20260903002558 67 234 4.0 11.0 0.00 0.00 0.00 29 1021.3
20260903002058 67 153 3.0 12.0 0.00 0.00 0.00 30 1021.4
20260903001625 67 160 3.0 12.0 0.00 0.00 0.00 29 1021.4
20260903001057 67 127 4.0 9.0 0.00 0.00 0.00 27 1021.4
20260903000557 67 175 4.0 11.0 0.00 0.00 0.00 30 1021.4
20260903000103 67 221 6.0 11.0 0.00 0.00 0.00 28 1021.6
20260902235557 68 156 1.0 16.0 0.00 0.00 0.00 29 1021.4
20260902235058 68 174 3.0 16.0 0.00 0.00 0.00 27 1021.4
20260902234627 68 0 5.0 18.0 0.00 0.00 0.00 26 1021.5
20260902234100 68 175 6.0 18.0 0.00 0.00 0.00 28 1021.4
20260902233557 68 172 3.0 16.0 0.00 0.00 0.00 28 1021.5
20260902233105 67 200 4.0 16.0 0.00 0.00 0.00 28 1021.3
20260902232601 67 163 8.0 13.0 0.00 0.00 0.00 27 1021.3
20260902232057 67 197 7.0 11.0 0.00 0.00 0.00 27 1021.4
20260902231614 67 266 3.0 14.0 0.00 0.00 0.00 27 1021.3
20260902231057 67 179 4.0 14.0 0.00 0.00 0.00 27 1021.5
20260902230600 68 163 5.0 14.0 0.00 0.00 0.00 28 1021.5
20260902230115 67 94 6.0 18.0 0.00 0.00 0.00 28 1021.3
20260902225557 67 289 8.0 18.0 0.00 0.00 0.00 28 1021.4
20260902225058 68 184 5.0 13.0 0.00 0.00 0.00 28 1021.4
20260902224605 68 251 5.0 17.0 0.00 0.00 0.00 28 1021.4
20260902224057 67 193 6.0 18.0 0.00 0.00 0.00 28 1021.7
20260902223554 67 150 9.0 18.0 0.00 0.00 0.00 27 1021.5
20260902223104 68 330 4.0 13.0 0.00 0.00 0.00 27 1021.7
20260902222558 68 160 3.0 13.0 0.00 0.00 0.00 28 1021.6
20260902222101 68 162 5.0 12.0 0.00 0.00 0.00 29 1021.6
20260902221607 67 153 4.0 14.0 0.00 0.00 0.00 29 1021.6
20260902221057 67 150 6.0 17.0 0.00 0.00 0.00 29 1021.7
20260902220601 67 169 9.0 21.0 0.00 0.00 0.00 27 1021.7
20260902220107 68 195 9.0 21.0 0.00 0.00 0.00 28 1021.8
20260902215558 68 150 8.0 20.0 0.00 0.00 0.00 27 1021.7
20260902215059 69 148 7.0 20.0 0.00 0.00 0.00 28 1022.0
20260902214615 70 154 5.0 20.0 0.00 0.00 0.00 25 1021.9
20260902214058 70 153 3.0 13.0 0.00 0.00 0.00 26 1021.9
20260902213557 70 144 2.0 13.0 0.00 0.00 0.00 25 1022.0
20260902213109 70 158 3.0 13.0 0.00 0.00 0.00 25 1021.8
20260902212558 69 145 7.0 16.0 0.00 0.00 0.00 26 1022.0
20260902212058 69 181 7.0 16.0 0.00 0.00 0.00 26 1021.7
20260902211606 69 163 3.0 17.0 0.00 0.00 0.00 25 1021.8
20260902211058 70 179 2.0 17.0 0.00 0.00 0.00 24 1021.8
20260902210604 71 118 5.0 17.0 0.00 0.00 0.00 24 1021.6
20260902210105 71 234 5.0 11.0 0.00 0.00 0.00 22 1021.4
20260902205559 72 208 4.0 10.0 0.00 0.00 0.00 23 1021.6
20260902205101 72 195 4.0 9.0 0.00 0.00 0.00 23 1021.5
20260902204607 71 29 2.0 5.0 0.00 0.00 0.00 24 1021.2
20260902204059 71 193 1.0 10.0 0.00 0.00 0.00 21 1021.1
20260902203558 71 104 3.0 22.0 0.00 0.00 0.00 24 1021.0
20260902203109 70 252 5.0 22.0 0.00 0.00 0.00 23 1021.1
20260902202559 69 335 13.0 22.0 0.00 0.00 0.00 24 1021.1
20260902202059 69 56 9.0 15.0 0.00 0.00 0.00 22 1021.1
20260902201606 70 181 1.0 11.0 0.00 0.00 0.00 22 1021.1
20260902201058 69 75 6.0 10.0 0.00 0.00 0.00 22 1021.1
20260902200558 69 302 5.0 10.0 0.00 0.00 0.00 22 1021.1
20260902200106 70 338 2.0 9.0 0.00 0.00 0.00 23 1021.1
20260902195602 69 273 3.0 9.0 0.00 0.00 0.00 24 1021.2
20260902195058 69 113 4.0 7.0 0.00 0.00 0.00 25 1021.3
20260902194610 70 49 2.0 9.0 0.00 0.00 0.00 24 1021.4
20260902194058 69 53 4.0 9.0 0.00 0.00 0.00 25 1021.4
20260902193559 69 250 4.0 9.0 0.00 0.00 0.00 25 1021.3
20260902193108 70 304 2.0 7.0 0.00 0.00 0.00 25 1021.3
20260902192600 70 257 2.0 5.0 0.00 0.00 0.00 23 1021.3
20260902192102 70 321 0.0 5.0 0.00 0.00 0.00 22 1021.4
20260902191605 68 0 1.0 5.0 0.00 0.00 0.00 26 1021.4
20260902191058 68 56 1.0 5.0 0.00 0.00 0.00 25 1021.5
20260902190558 68 338 1.0 5.0 0.00 0.00 0.00 25 1021.5
20260902190106 67 60 2.0 5.0 0.00 0.00 0.00 24 1021.7
20260902185558 67 307 2.0 5.0 0.00 0.00 0.00 24 1021.8
20260902185102 67 31 3.0 5.0 0.00 0.00 0.00 25 1021.9
20260902184609 66 54 1.0 4.0 0.00 0.00 0.00 24 1022.1
20260902184059 66 305 1.0 4.0 0.00 0.00 0.00 25 1022.0